Ketchikan, AK

2:58 AM AKST on January 21, 2019 (GMT -0900)
Ketchikan International

Weather History for PAKT - December, 2018

Change the Weather History Date:

Monday, December 3, 2018

  Actual Average Record
Temperature  
Mean Temperature 29 °F -  
Max Temperature 33 °F 40 °F 52 °F (1963)
Min Temperature 25 °F 31 °F 4 °F (1970)
Degree Days  
Heating Degree Days 36    
Moisture  
Dew Point 25 °F    
Average Humidity 89    
Maximum Humidity 92    
Minimum Humidity 85    
Precipitation  
Precipitation 0.00 in - - ()
Sea Level Pressure  
Sea Level Pressure 30.42 in    
Wind  
Wind Speed 2 mph (SSW)    
Max Wind Speed 5 mph    
Max Gust Speed -    
Visibility 9 miles    
Events      
Averages and records for this station are not official NWS values.
T = Trace of Precipitation, MM = Missing Value Source: NWS Daily Summary

Daily Weather History Graph

Daily Weather History Graph

Search for Another Location

Airport or City:

Astronomy

Dec. 03, 2018 Rise Set
Actual Time 7:53 AM AKST 3:19 PM AKST
Civil Twilight 7:08 AM AKST 4:04 PM AKST
Nautical Twilight 6:21 AM AKST 4:51 PM AKST
Astronomical Twilight 5:37 AM AKST 5:36 PM AKST
Moon 3:10 AM AKST (12/3) 2:18 PM AKST (12/3)
Length of Visible Light 8h 55m
Length of Day
7h 26m
Waning Crescent, 12% of the Moon is Illuminated
Dec 3
Waning Crescent
Dec 6
New
Dec 15
First Quarter
Dec 22
Full
Dec 29
Last Quarter

Hourly Weather History & Observations

Time (AKST) Temp. Windchill Dew Point Humidity Pressure Visibility Wind Dir Wind Speed Gust Speed Precip Events Conditions
12:53 AM 25.0 °F 20.7 °F 21.9 °F 88% 30.37 in 10.0 mi WNW 3.5 mph - N/A   Clear
1:53 AM 25.0 °F - 23.0 °F 92% 30.38 in 10.0 mi Calm Calm - N/A   Clear
2:53 AM 25.0 °F - 23.0 °F 92% 30.39 in 10.0 mi Calm Calm - N/A   Clear
3:53 AM 26.1 °F - 23.0 °F 88% 30.40 in 10.0 mi Calm Calm - N/A   Clear
4:53 AM 25.0 °F - 23.0 °F 92% 30.40 in 10.0 mi Calm Calm - N/A   Clear
5:53 AM 25.0 °F 20.7 °F 23.0 °F 92% 30.40 in 10.0 mi SSE 3.5 mph - N/A   Clear
6:09 AM 25.0 °F - 21.9 °F 88% 30.40 in 1.5 mi Calm Calm - N/A   Mostly Cloudy
6:51 AM 26.6 °F 21.2 °F 23.0 °F 86% 30.40 in 0.8 mi SSE 4.6 mph - N/A   Mostly Cloudy
6:53 AM 26.1 °F 20.5 °F 24.1 °F 92% 30.40 in 0.8 mi SSE 4.6 mph - N/A   Mostly Cloudy
7:14 AM 25.0 °F - 23.0 °F 92% 30.40 in 1.0 mi Calm Calm - N/A   Scattered Clouds
7:29 AM 26.1 °F - 23.0 °F 88% 30.40 in 10.0 mi Calm Calm - N/A   Partly Cloudy
7:53 AM 26.1 °F - 23.0 °F 88% 30.42 in 10.0 mi Calm Calm - N/A   Scattered Clouds
8:53 AM 27.0 °F 23.0 °F 24.1 °F 89% 30.43 in 10.0 mi SE 3.5 mph - N/A   Partly Cloudy
9:53 AM 28.9 °F - 27.0 °F 92% 30.45 in 10.0 mi Calm Calm - N/A   Partly Cloudy
10:53 AM 32.0 °F - 28.9 °F 88% 30.45 in 10.0 mi Calm Calm - N/A   Partly Cloudy
11:53 AM 33.1 °F - 28.9 °F 85% 30.45 in 10.0 mi Calm Calm - N/A   Clear
12:53 PM 33.1 °F 28.7 °F 28.9 °F 85% 30.45 in 10.0 mi WNW 4.6 mph - N/A   Clear
1:53 PM 33.1 °F 28.7 °F 28.9 °F 85% 30.45 in 10.0 mi WNW 4.6 mph - N/A   Clear
2:53 PM 32.0 °F - 28.9 °F 88% 30.44 in 10.0 mi Calm Calm - N/A   Clear
3:53 PM 30.9 °F - 28.0 °F 89% 30.44 in 10.0 mi Calm Calm - N/A   Clear
4:53 PM 30.0 °F 26.5 °F 27.0 °F 88% 30.43 in 10.0 mi South 3.5 mph - N/A   Partly Cloudy
5:53 PM 30.9 °F - 28.9 °F 92% 30.43 in 10.0 mi Calm Calm - N/A   Clear
6:53 PM 28.9 °F - 26.1 °F 89% 30.43 in 10.0 mi Calm Calm - N/A   Clear
7:53 PM 28.9 °F - 26.1 °F 89% 30.43 in 10.0 mi Calm Calm - N/A   Clear
8:53 PM 30.9 °F 27.5 °F 27.0 °F 85% 30.44 in 10.0 mi South 3.5 mph - N/A   Clear
9:53 PM 28.0 °F - 25.0 °F 88% 30.44 in 10.0 mi Calm Calm - N/A   Clear
10:53 PM 28.9 °F 25.2 °F 26.1 °F 89% 30.45 in 10.0 mi SSW 3.5 mph - N/A   Mostly Cloudy
11:53 PM 32.0 °F - 28.9 °F 88% 30.45 in 10.0 mi Calm Calm - N/A   Overcast